This is the latest recevied weather packets stored in our database for station/object KC3UTO. If no packets are shown the sender has not sent any weather packets the latest 10 day(s).
| Time | Temp. | Humidity | Pressure | Rain* | Wind** | Luminosity | Snow |
|---|---|---|---|---|---|---|---|
| 1777406256 | 15.56° C | 49% | 1017.9 hPa | 0 mm | - | 67 W/m² | - |
| 1777405955 | 15.56° C | 47% | 1017.8 hPa | 0 mm | - | 74 W/m² | - |
| 1777405045 | 15.56° C | 46% | 1018.2 hPa | 0 mm | - | 98 W/m² | - |
| 1777404739 | 16.11° C | 47% | 1018.5 hPa | 0 mm | - | 115 W/m² | - |
| 1777404132 | 16.11° C | 45% | 1018.5 hPa | 0 mm | - | 146 W/m² | - |
| 1777403829 | 16.11° C | 46% | 1018.5 hPa | 0 mm | - | 130 W/m² | - |
| 1777403529 | 16.11° C | 45% | 1018.8 hPa | 0 mm | - | 125 W/m² | - |
| 1777402924 | 16.11° C | 46% | 1018.7 hPa | 0 mm | - | 167 W/m² | - |
| 1777402620 | 16.11° C | 48% | 1018.8 hPa | 0 mm | - | 204 W/m² | - |
| 1777397774 | 15.56° C | 43% | 1019.6 hPa | 0 mm | - | 176 W/m² | - |
| 1777397474 | 16.11° C | 41% | 1019.4 hPa | 0 mm | - | 188 W/m² | - |
| 1777396868 | 16.11° C | 42% | 1019.5 hPa | 0 mm | - | 318 W/m² | - |
| 1777396261 | 16.11° C | 41% | 1019.5 hPa | 0 mm | - | 245 W/m² | - |
| 1777395956 | 16.11° C | 40% | 1019.9 hPa | 0 mm | - | 346 W/m² | - |
| 1777395652 | 15.56° C | 43% | 1020.1 hPa | 0 mm | - | 378 W/m² | - |
| 1777394439 | 15° C | 41% | 1020.2 hPa | 0 mm | - | 273 W/m² | - |
| 1777393831 | 15° C | 43% | 1020.1 hPa | 0 mm | - | 274 W/m² | - |
| 1777393530 | 15° C | 45% | 1020.2 hPa | 0 mm | - | 307 W/m² | - |
| 1777391710 | 14.44° C | 45% | 1020.5 hPa | 0 mm | - | 140 W/m² | - |
| 1777390496 | 14.44° C | 45% | 1020.8 hPa | 0 mm | - | 174 W/m² | - |
| 1777389586 | 14.44° C | 50% | 1020.7 hPa | 0 mm | - | 226 W/m² | - |
| 1777389282 | 14.44° C | 50% | 1021 hPa | 0 mm | - | 240 W/m² | - |
| 1777388677 | 13.89° C | 47% | 1021 hPa | 0 mm | - | 221 W/m² | - |
| 1777386554 | 13.89° C | 51% | 1021 hPa | 0 mm | - | 184 W/m² | - |
| 1777385949 | 13.33° C | 50% | 1020.8 hPa | 0 mm | - | 185 W/m² | - |
* Rain latest hour (hover to see other rain measurements)
** Current wind speed in m/s (hover to see current wind gust speed)